,Coso Junction,Coso Junction
,PM10_1HR,PM10_1HR
,UG/M3,UG/M3
Date,Value,Null Code
01-Nov-2021 00:00,3.3,
01-Nov-2021 01:00,2.9,
01-Nov-2021 02:00,4.6,
01-Nov-2021 03:00,4.9,
01-Nov-2021 04:00,7.5,
01-Nov-2021 05:00,32.8,
01-Nov-2021 06:00,8.7,
01-Nov-2021 07:00,13.1,
01-Nov-2021 08:00,12.9,
01-Nov-2021 09:00,4.8,
01-Nov-2021 10:00,6.7,
01-Nov-2021 11:00,6,
01-Nov-2021 12:00,6.1,
01-Nov-2021 13:00,6.3,
01-Nov-2021 14:00,11.1,
01-Nov-2021 15:00,15.4,
01-Nov-2021 16:00,9.5,
01-Nov-2021 17:00,28.9,
01-Nov-2021 18:00,12.9,
01-Nov-2021 19:00,11.6,
01-Nov-2021 20:00,9.1,
01-Nov-2021 21:00,9.4,
01-Nov-2021 22:00,9.8,
01-Nov-2021 23:00,6.3,
02-Nov-2021 00:00,6.5,
02-Nov-2021 01:00,6.3,
02-Nov-2021 02:00,6.1,
02-Nov-2021 03:00,5.4,
02-Nov-2021 04:00,9.5,
02-Nov-2021 05:00,8.2,
02-Nov-2021 06:00,8.6,
02-Nov-2021 07:00,18.7,
02-Nov-2021 08:00,17.2,
02-Nov-2021 09:00,9.9,
02-Nov-2021 10:00,9,
02-Nov-2021 11:00,5.2,
02-Nov-2021 12:00,5.4,
02-Nov-2021 13:00,10.8,
02-Nov-2021 14:00,13.6,
02-Nov-2021 15:00,12.7,
02-Nov-2021 16:00,10.9,
02-Nov-2021 17:00,12.3,
02-Nov-2021 18:00,9.8,
02-Nov-2021 19:00,8.3,
02-Nov-2021 20:00,6.7,
02-Nov-2021 21:00,5.8,
02-Nov-2021 22:00,5.9,
02-Nov-2021 23:00,14.8,
03-Nov-2021 00:00,6.9,
03-Nov-2021 01:00,7.1,
03-Nov-2021 02:00,9.1,
03-Nov-2021 03:00,6.7,
03-Nov-2021 04:00,8,
03-Nov-2021 05:00,12.2,
03-Nov-2021 06:00,12.7,
03-Nov-2021 07:00,15.4,
03-Nov-2021 08:00,,AZ
03-Nov-2021 09:00,9.2,
03-Nov-2021 10:00,4.9,
03-Nov-2021 11:00,5.1,
03-Nov-2021 12:00,5.2,
03-Nov-2021 13:00,6.4,
03-Nov-2021 14:00,7.1,
03-Nov-2021 15:00,7.8,
03-Nov-2021 16:00,17.1,
03-Nov-2021 17:00,7.4,
03-Nov-2021 18:00,8.2,
03-Nov-2021 19:00,8.2,
03-Nov-2021 20:00,5.8,
03-Nov-2021 21:00,4.8,
03-Nov-2021 22:00,3.5,
03-Nov-2021 23:00,4.7,
04-Nov-2021 00:00,12.4,
04-Nov-2021 01:00,7.8,
04-Nov-2021 02:00,7.8,
04-Nov-2021 03:00,7,
04-Nov-2021 04:00,13.4,
04-Nov-2021 05:00,13.4,
04-Nov-2021 06:00,9,
04-Nov-2021 07:00,12.4,
04-Nov-2021 08:00,,AZ
04-Nov-2021 09:00,,AZ
04-Nov-2021 10:00,,BA
04-Nov-2021 11:00,,BA
04-Nov-2021 12:00,,BA
04-Nov-2021 13:00,14.6,
04-Nov-2021 14:00,14.9,
04-Nov-2021 15:00,13.1,
04-Nov-2021 16:00,8.8,
04-Nov-2021 17:00,9.7,
04-Nov-2021 18:00,10.1,
04-Nov-2021 19:00,8.7,
04-Nov-2021 20:00,9.2,
04-Nov-2021 21:00,7.1,
04-Nov-2021 22:00,8.2,
04-Nov-2021 23:00,8.6,
05-Nov-2021 00:00,8.7,
05-Nov-2021 01:00,7.7,
05-Nov-2021 02:00,7.8,
05-Nov-2021 03:00,6.6,
05-Nov-2021 04:00,7.9,
05-Nov-2021 05:00,6.9,
05-Nov-2021 06:00,8.3,
05-Nov-2021 07:00,12.4,
05-Nov-2021 08:00,14.7,
05-Nov-2021 09:00,8.8,
05-Nov-2021 10:00,9.2,
05-Nov-2021 11:00,7.6,
05-Nov-2021 12:00,5.9,
05-Nov-2021 13:00,9.7,
05-Nov-2021 14:00,10.2,
05-Nov-2021 15:00,7.5,
05-Nov-2021 16:00,12.8,
05-Nov-2021 17:00,10.3,
05-Nov-2021 18:00,9.7,
05-Nov-2021 19:00,11.3,
05-Nov-2021 20:00,8.9,
05-Nov-2021 21:00,7.7,
05-Nov-2021 22:00,8.8,
05-Nov-2021 23:00,9.5,
06-Nov-2021 00:00,10.8,
06-Nov-2021 01:00,11.2,
06-Nov-2021 02:00,8.7,
06-Nov-2021 03:00,9.7,
06-Nov-2021 04:00,16.4,
06-Nov-2021 05:00,11,
06-Nov-2021 06:00,9.2,
06-Nov-2021 07:00,10.2,
06-Nov-2021 08:00,16.5,
06-Nov-2021 09:00,11.4,
06-Nov-2021 10:00,9.8,
06-Nov-2021 11:00,6.4,
06-Nov-2021 12:00,5.3,
06-Nov-2021 13:00,9,
06-Nov-2021 14:00,8.5,
06-Nov-2021 15:00,4.8,
06-Nov-2021 16:00,6.1,
06-Nov-2021 17:00,2.5,
06-Nov-2021 18:00,3.5,
06-Nov-2021 19:00,4.9,
06-Nov-2021 20:00,6.4,
06-Nov-2021 21:00,3.6,
06-Nov-2021 22:00,13.5,
06-Nov-2021 23:00,5,
07-Nov-2021 00:00,5.4,
07-Nov-2021 01:00,1.8,
07-Nov-2021 02:00,3.2,
07-Nov-2021 03:00,4.4,
07-Nov-2021 04:00,4.6,
07-Nov-2021 05:00,9.1,
07-Nov-2021 06:00,5.8,
07-Nov-2021 07:00,11.1,
07-Nov-2021 08:00,10.1,
07-Nov-2021 09:00,12.7,
07-Nov-2021 10:00,7.8,
07-Nov-2021 11:00,8.8,
07-Nov-2021 12:00,7.9,
07-Nov-2021 13:00,9.1,
07-Nov-2021 14:00,7.3,
07-Nov-2021 15:00,8.3,
07-Nov-2021 16:00,7.3,
07-Nov-2021 17:00,17.9,
07-Nov-2021 18:00,8.1,
07-Nov-2021 19:00,6.1,
07-Nov-2021 20:00,9.8,
07-Nov-2021 21:00,6.6,
07-Nov-2021 22:00,5.4,
07-Nov-2021 23:00,2.9,
08-Nov-2021 00:00,6.4,
08-Nov-2021 01:00,5.4,
08-Nov-2021 02:00,4.8,
08-Nov-2021 03:00,4.8,
08-Nov-2021 04:00,7.3,
08-Nov-2021 05:00,7.3,
08-Nov-2021 06:00,7.6,
08-Nov-2021 07:00,5,
08-Nov-2021 08:00,10.4,
08-Nov-2021 09:00,17.6,
08-Nov-2021 10:00,4.1,
08-Nov-2021 11:00,4.6,
08-Nov-2021 12:00,8.3,
08-Nov-2021 13:00,5.9,
08-Nov-2021 14:00,7.3,
08-Nov-2021 15:00,12.2,
08-Nov-2021 16:00,7.1,
08-Nov-2021 17:00,14.2,
08-Nov-2021 18:00,8.1,
08-Nov-2021 19:00,9,
08-Nov-2021 20:00,7.9,
08-Nov-2021 21:00,8.9,
08-Nov-2021 22:00,4.9,
08-Nov-2021 23:00,1.9,
09-Nov-2021 00:00,5.3,
09-Nov-2021 01:00,19,
09-Nov-2021 02:00,13.5,
09-Nov-2021 03:00,10.6,
09-Nov-2021 04:00,7.7,
09-Nov-2021 05:00,5.1,
09-Nov-2021 06:00,6,
09-Nov-2021 07:00,4.4,
09-Nov-2021 08:00,4.8,
09-Nov-2021 09:00,5.5,
09-Nov-2021 10:00,8.1,
09-Nov-2021 11:00,4.9,
09-Nov-2021 12:00,5.2,
09-Nov-2021 13:00,4.1,
09-Nov-2021 14:00,4.4,
09-Nov-2021 15:00,2.2,
09-Nov-2021 16:00,0.8,
09-Nov-2021 17:00,3.2,
09-Nov-2021 18:00,4.9,
09-Nov-2021 19:00,6,
09-Nov-2021 20:00,6.9,
09-Nov-2021 21:00,8.2,
09-Nov-2021 22:00,6.2,
09-Nov-2021 23:00,4.9,
10-Nov-2021 00:00,2.4,
10-Nov-2021 01:00,4.3,
10-Nov-2021 02:00,4.7,
10-Nov-2021 03:00,4,
10-Nov-2021 04:00,4.9,
10-Nov-2021 05:00,4.1,
10-Nov-2021 06:00,5.2,
10-Nov-2021 07:00,6.5,
10-Nov-2021 08:00,9.8,
10-Nov-2021 09:00,5.5,
10-Nov-2021 10:00,3.8,
10-Nov-2021 11:00,5.3,
10-Nov-2021 12:00,2.7,
10-Nov-2021 13:00,4.1,
10-Nov-2021 14:00,4.5,
10-Nov-2021 15:00,5.1,
10-Nov-2021 16:00,1,
10-Nov-2021 17:00,3.6,
10-Nov-2021 18:00,4.8,
10-Nov-2021 19:00,4,
10-Nov-2021 20:00,4.1,
10-Nov-2021 21:00,13.1,
10-Nov-2021 22:00,4.3,
10-Nov-2021 23:00,4.1,
11-Nov-2021 00:00,6,
11-Nov-2021 01:00,8.3,
11-Nov-2021 02:00,6.6,
11-Nov-2021 03:00,3.9,
11-Nov-2021 04:00,4.2,
11-Nov-2021 05:00,4.8,
11-Nov-2021 06:00,4.7,
11-Nov-2021 07:00,6.9,
11-Nov-2021 08:00,10.7,
11-Nov-2021 09:00,6,
11-Nov-2021 10:00,4.5,
11-Nov-2021 11:00,1.8,
11-Nov-2021 12:00,2.9,
11-Nov-2021 13:00,1.8,
11-Nov-2021 14:00,4.2,
11-Nov-2021 15:00,1.9,
11-Nov-2021 16:00,2.3,
11-Nov-2021 17:00,4.9,
11-Nov-2021 18:00,3,
11-Nov-2021 19:00,5.8,
11-Nov-2021 20:00,4.6,
11-Nov-2021 21:00,2.4,
11-Nov-2021 22:00,3.8,
11-Nov-2021 23:00,4.6,
12-Nov-2021 00:00,3.9,
12-Nov-2021 01:00,7.8,
12-Nov-2021 02:00,2.6,
12-Nov-2021 03:00,5,
12-Nov-2021 04:00,5,
12-Nov-2021 05:00,5.4,
12-Nov-2021 06:00,5.7,
12-Nov-2021 07:00,8.8,
12-Nov-2021 08:00,8.9,
12-Nov-2021 09:00,4.9,
12-Nov-2021 10:00,5.4,
12-Nov-2021 11:00,4.6,
12-Nov-2021 12:00,2.3,
12-Nov-2021 13:00,2.1,
12-Nov-2021 14:00,5,
12-Nov-2021 15:00,12.4,
12-Nov-2021 16:00,2.7,
12-Nov-2021 17:00,3.3,
12-Nov-2021 18:00,3.3,
12-Nov-2021 19:00,5.8,
12-Nov-2021 20:00,4,
12-Nov-2021 21:00,3.5,
12-Nov-2021 22:00,4.5,
12-Nov-2021 23:00,5.9,
13-Nov-2021 00:00,3.5,
13-Nov-2021 01:00,5.1,
13-Nov-2021 02:00,3.1,
13-Nov-2021 03:00,5.3,
13-Nov-2021 04:00,5.6,
13-Nov-2021 05:00,4.8,
13-Nov-2021 06:00,6.4,
13-Nov-2021 07:00,8.4,
13-Nov-2021 08:00,11.9,
13-Nov-2021 09:00,6.2,
13-Nov-2021 10:00,6.7,
13-Nov-2021 11:00,2.3,
13-Nov-2021 12:00,3.3,
13-Nov-2021 13:00,3.8,
13-Nov-2021 14:00,4.6,
13-Nov-2021 15:00,3.1,
13-Nov-2021 16:00,1.9,
13-Nov-2021 17:00,2.7,
13-Nov-2021 18:00,3.4,
13-Nov-2021 19:00,4.8,
13-Nov-2021 20:00,3.8,
13-Nov-2021 21:00,1.8,
13-Nov-2021 22:00,3.9,
13-Nov-2021 23:00,4.2,
14-Nov-2021 00:00,3.3,
14-Nov-2021 01:00,4.9,
14-Nov-2021 02:00,4.5,
14-Nov-2021 03:00,7.2,
14-Nov-2021 04:00,7.2,
14-Nov-2021 05:00,5.9,
14-Nov-2021 06:00,6.9,
14-Nov-2021 07:00,7.1,
14-Nov-2021 08:00,11.9,
14-Nov-2021 09:00,7.1,
14-Nov-2021 10:00,5.2,
14-Nov-2021 11:00,4.3,
14-Nov-2021 12:00,4.8,
14-Nov-2021 13:00,4.2,
14-Nov-2021 14:00,5.2,
14-Nov-2021 15:00,5.2,
14-Nov-2021 16:00,0.8,
14-Nov-2021 17:00,3.2,
14-Nov-2021 18:00,3.3,
14-Nov-2021 19:00,4.9,
14-Nov-2021 20:00,4.1,
14-Nov-2021 21:00,3.9,
14-Nov-2021 22:00,4.7,
14-Nov-2021 23:00,5.3,
15-Nov-2021 00:00,4.3,
15-Nov-2021 01:00,3.7,
15-Nov-2021 02:00,4.2,
15-Nov-2021 03:00,4.8,
15-Nov-2021 04:00,5.5,
15-Nov-2021 05:00,6,
15-Nov-2021 06:00,7.2,
15-Nov-2021 07:00,6.3,
15-Nov-2021 08:00,12.1,
15-Nov-2021 09:00,9.2,
15-Nov-2021 10:00,10.5,
15-Nov-2021 11:00,7.1,
15-Nov-2021 12:00,5.5,
15-Nov-2021 13:00,4.7,
15-Nov-2021 14:00,6.4,
15-Nov-2021 15:00,25.2,
15-Nov-2021 16:00,15.6,
15-Nov-2021 17:00,9.8,
15-Nov-2021 18:00,10.2,
15-Nov-2021 19:00,7.1,
15-Nov-2021 20:00,8.5,
15-Nov-2021 21:00,7.5,
15-Nov-2021 22:00,6.8,
15-Nov-2021 23:00,7.7,
16-Nov-2021 00:00,6.5,
16-Nov-2021 01:00,9.6,
16-Nov-2021 02:00,9.7,
16-Nov-2021 03:00,8.2,
16-Nov-2021 04:00,7.9,
16-Nov-2021 05:00,8.2,
16-Nov-2021 06:00,11.6,
16-Nov-2021 07:00,9.8,
16-Nov-2021 08:00,11.7,
16-Nov-2021 09:00,7.8,
16-Nov-2021 10:00,5.2,
16-Nov-2021 11:00,4,
16-Nov-2021 12:00,6.8,
16-Nov-2021 13:00,8.2,
16-Nov-2021 14:00,9.2,
16-Nov-2021 15:00,8.3,
16-Nov-2021 16:00,12.2,
16-Nov-2021 17:00,5.8,
16-Nov-2021 18:00,7.6,
16-Nov-2021 19:00,6.7,
16-Nov-2021 20:00,41.1,
16-Nov-2021 21:00,41.1,
16-Nov-2021 22:00,11.7,
16-Nov-2021 23:00,7.4,
17-Nov-2021 00:00,8.8,
17-Nov-2021 01:00,7.8,
17-Nov-2021 02:00,9.7,
17-Nov-2021 03:00,10.4,
17-Nov-2021 04:00,12.5,
17-Nov-2021 05:00,17.7,
17-Nov-2021 06:00,18.1,
17-Nov-2021 07:00,18.7,
17-Nov-2021 08:00,21.1,
17-Nov-2021 09:00,24,
17-Nov-2021 10:00,17.1,
17-Nov-2021 11:00,17.3,
17-Nov-2021 12:00,13.8,
17-Nov-2021 13:00,10,
17-Nov-2021 14:00,9.9,
17-Nov-2021 15:00,10.3,
17-Nov-2021 16:00,21.8,
17-Nov-2021 17:00,13.5,
17-Nov-2021 18:00,7.6,
17-Nov-2021 19:00,5.7,
17-Nov-2021 20:00,7.6,
17-Nov-2021 21:00,8.1,
17-Nov-2021 22:00,7.5,
17-Nov-2021 23:00,8,
18-Nov-2021 00:00,6.8,
18-Nov-2021 01:00,7.9,
18-Nov-2021 02:00,7.9,
18-Nov-2021 03:00,7.7,
18-Nov-2021 04:00,8,
18-Nov-2021 05:00,10,
18-Nov-2021 06:00,12.2,
18-Nov-2021 07:00,9.4,
18-Nov-2021 08:00,10.5,
18-Nov-2021 09:00,,BL
18-Nov-2021 10:00,,BL
18-Nov-2021 11:00,,BL
18-Nov-2021 12:00,9.7,
18-Nov-2021 13:00,11.7,
18-Nov-2021 14:00,11.4,
18-Nov-2021 15:00,16.8,
18-Nov-2021 16:00,18.9,
18-Nov-2021 17:00,14.9,
18-Nov-2021 18:00,11.8,
18-Nov-2021 19:00,9.9,
18-Nov-2021 20:00,16.3,
18-Nov-2021 21:00,10.9,
18-Nov-2021 22:00,14.2,
18-Nov-2021 23:00,16.5,
19-Nov-2021 00:00,10.7,
19-Nov-2021 01:00,10.8,
19-Nov-2021 02:00,11.2,
19-Nov-2021 03:00,11.3,
19-Nov-2021 04:00,11.5,
19-Nov-2021 05:00,9.2,
19-Nov-2021 06:00,10.7,
19-Nov-2021 07:00,8.8,
19-Nov-2021 08:00,12.9,
19-Nov-2021 09:00,19.1,
19-Nov-2021 10:00,16,
19-Nov-2021 11:00,12.1,
19-Nov-2021 12:00,8.8,
19-Nov-2021 13:00,9.3,
19-Nov-2021 14:00,10.2,
19-Nov-2021 15:00,17,
19-Nov-2021 16:00,11.7,
19-Nov-2021 17:00,11.7,
19-Nov-2021 18:00,6.5,
19-Nov-2021 19:00,7.3,
19-Nov-2021 20:00,10.5,
19-Nov-2021 21:00,10.9,
19-Nov-2021 22:00,9.6,
19-Nov-2021 23:00,10,
20-Nov-2021 00:00,8.4,
20-Nov-2021 01:00,10.5,
20-Nov-2021 02:00,9.9,
20-Nov-2021 03:00,11.4,
20-Nov-2021 04:00,11,
20-Nov-2021 05:00,11,
20-Nov-2021 06:00,11.9,
20-Nov-2021 07:00,9.8,
20-Nov-2021 08:00,12.6,
20-Nov-2021 09:00,19.5,
20-Nov-2021 10:00,10.4,
20-Nov-2021 11:00,9.6,
20-Nov-2021 12:00,9.2,
20-Nov-2021 13:00,10.8,
20-Nov-2021 14:00,7.6,
20-Nov-2021 15:00,7.8,
20-Nov-2021 16:00,6.4,
20-Nov-2021 17:00,7.6,
20-Nov-2021 18:00,4.9,
20-Nov-2021 19:00,3.1,
20-Nov-2021 20:00,8.7,
20-Nov-2021 21:00,11.6,
20-Nov-2021 22:00,12,
20-Nov-2021 23:00,13.4,
21-Nov-2021 00:00,15.6,
21-Nov-2021 01:00,8.2,
21-Nov-2021 02:00,7.6,
21-Nov-2021 03:00,7.5,
21-Nov-2021 04:00,9,
21-Nov-2021 05:00,8.4,
21-Nov-2021 06:00,8.1,
21-Nov-2021 07:00,7.3,
21-Nov-2021 08:00,5.9,
21-Nov-2021 09:00,7.4,
21-Nov-2021 10:00,10.7,
21-Nov-2021 11:00,9.7,
21-Nov-2021 12:00,3.7,
21-Nov-2021 13:00,5.1,
21-Nov-2021 14:00,3.5,
21-Nov-2021 15:00,7.1,
21-Nov-2021 16:00,4.7,
21-Nov-2021 17:00,3.2,
21-Nov-2021 18:00,1.6,
21-Nov-2021 19:00,5.8,
21-Nov-2021 20:00,5.7,
21-Nov-2021 21:00,4.5,
21-Nov-2021 22:00,4.5,
21-Nov-2021 23:00,3.5,
22-Nov-2021 00:00,4.4,
22-Nov-2021 01:00,6.6,
22-Nov-2021 02:00,3.3,
22-Nov-2021 03:00,5.4,
22-Nov-2021 04:00,5.1,
22-Nov-2021 05:00,8.4,
22-Nov-2021 06:00,6.6,
22-Nov-2021 07:00,4.7,
22-Nov-2021 08:00,5.6,
22-Nov-2021 09:00,5.1,
22-Nov-2021 10:00,10.6,
22-Nov-2021 11:00,8.1,
22-Nov-2021 12:00,1.7,
22-Nov-2021 13:00,3.9,
22-Nov-2021 14:00,4.2,
22-Nov-2021 15:00,9.4,
22-Nov-2021 16:00,11.7,
22-Nov-2021 17:00,5.1,
22-Nov-2021 18:00,5.7,
22-Nov-2021 19:00,3.5,
22-Nov-2021 20:00,6.4,
22-Nov-2021 21:00,7.1,
22-Nov-2021 22:00,4.6,
22-Nov-2021 23:00,7,
23-Nov-2021 00:00,4.9,
23-Nov-2021 01:00,8.5,
23-Nov-2021 02:00,7.1,
23-Nov-2021 03:00,4.2,
23-Nov-2021 04:00,7.5,
23-Nov-2021 05:00,7,
23-Nov-2021 06:00,6.1,
23-Nov-2021 07:00,6.4,
23-Nov-2021 08:00,5.2,
23-Nov-2021 09:00,13.3,
23-Nov-2021 10:00,9,
23-Nov-2021 11:00,3.6,
23-Nov-2021 12:00,6.7,
23-Nov-2021 13:00,7.9,
23-Nov-2021 14:00,6.5,
23-Nov-2021 15:00,7.6,
23-Nov-2021 16:00,9.2,
23-Nov-2021 17:00,5.2,
23-Nov-2021 18:00,6.3,
23-Nov-2021 19:00,8.7,
23-Nov-2021 20:00,9.6,
23-Nov-2021 21:00,9,
23-Nov-2021 22:00,8.2,
23-Nov-2021 23:00,13.5,
24-Nov-2021 00:00,17.9,
24-Nov-2021 01:00,24.6,
24-Nov-2021 02:00,27.3,
24-Nov-2021 03:00,25.6,
24-Nov-2021 04:00,23.2,
24-Nov-2021 05:00,22.6,
24-Nov-2021 06:00,22.5,
24-Nov-2021 07:00,21,
24-Nov-2021 08:00,34.2,
24-Nov-2021 09:00,58.6,
24-Nov-2021 10:00,40.4,
24-Nov-2021 11:00,71.2,
24-Nov-2021 12:00,60.9,
24-Nov-2021 13:00,45.5,
24-Nov-2021 14:00,38.5,
24-Nov-2021 15:00,25.9,
24-Nov-2021 16:00,18,
24-Nov-2021 17:00,20.1,
24-Nov-2021 18:00,22.1,
24-Nov-2021 19:00,27.3,
24-Nov-2021 20:00,24.2,
24-Nov-2021 21:00,14.4,
24-Nov-2021 22:00,11.1,
24-Nov-2021 23:00,10.4,
25-Nov-2021 00:00,9.3,
25-Nov-2021 01:00,7.2,
25-Nov-2021 02:00,12.4,
25-Nov-2021 03:00,14.4,
25-Nov-2021 04:00,9.4,
25-Nov-2021 05:00,24.8,
25-Nov-2021 06:00,20.8,
25-Nov-2021 07:00,6.9,
25-Nov-2021 08:00,9.4,
25-Nov-2021 09:00,5.6,
25-Nov-2021 10:00,5.4,
25-Nov-2021 11:00,8.9,
25-Nov-2021 12:00,9.8,
25-Nov-2021 13:00,6.3,
25-Nov-2021 14:00,4.1,
25-Nov-2021 15:00,8.9,
25-Nov-2021 16:00,7.6,
25-Nov-2021 17:00,4.9,
25-Nov-2021 18:00,7.5,
25-Nov-2021 19:00,7.3,
25-Nov-2021 20:00,7.4,
25-Nov-2021 21:00,8.2,
25-Nov-2021 22:00,7.5,
25-Nov-2021 23:00,7.5,
26-Nov-2021 00:00,5,
26-Nov-2021 01:00,7.7,
26-Nov-2021 02:00,4.7,
26-Nov-2021 03:00,7.5,
26-Nov-2021 04:00,8.6,
26-Nov-2021 05:00,8,
26-Nov-2021 06:00,8.5,
26-Nov-2021 07:00,7.4,
26-Nov-2021 08:00,7.7,
26-Nov-2021 09:00,8.8,
26-Nov-2021 10:00,9.5,
26-Nov-2021 11:00,5.4,
26-Nov-2021 12:00,4.8,
26-Nov-2021 13:00,4.5,
26-Nov-2021 14:00,7,
26-Nov-2021 15:00,10.1,
26-Nov-2021 16:00,8.3,
26-Nov-2021 17:00,5.5,
26-Nov-2021 18:00,4.4,
26-Nov-2021 19:00,4.9,
26-Nov-2021 20:00,6.5,
26-Nov-2021 21:00,8.2,
26-Nov-2021 22:00,3.4,
26-Nov-2021 23:00,7,
27-Nov-2021 00:00,7.5,
27-Nov-2021 01:00,9.3,
27-Nov-2021 02:00,5.7,
27-Nov-2021 03:00,7.9,
27-Nov-2021 04:00,10.4,
27-Nov-2021 05:00,12.1,
27-Nov-2021 06:00,11.1,
27-Nov-2021 07:00,10.1,
27-Nov-2021 08:00,9.2,
27-Nov-2021 09:00,14.1,
27-Nov-2021 10:00,12.2,
27-Nov-2021 11:00,7.6,
27-Nov-2021 12:00,8.5,
27-Nov-2021 13:00,6.5,
27-Nov-2021 14:00,9.8,
27-Nov-2021 15:00,9,
27-Nov-2021 16:00,7.3,
27-Nov-2021 17:00,9.9,
27-Nov-2021 18:00,5.8,
27-Nov-2021 19:00,7.9,
27-Nov-2021 20:00,9.5,
27-Nov-2021 21:00,9.6,
27-Nov-2021 22:00,6.6,
27-Nov-2021 23:00,9.6,
28-Nov-2021 00:00,6.9,
28-Nov-2021 01:00,9.3,
28-Nov-2021 02:00,10,
28-Nov-2021 03:00,10.4,
28-Nov-2021 04:00,10,
28-Nov-2021 05:00,12.1,
28-Nov-2021 06:00,11.3,
28-Nov-2021 07:00,10.2,
28-Nov-2021 08:00,11.1,
28-Nov-2021 09:00,13.5,
28-Nov-2021 10:00,14.4,
28-Nov-2021 11:00,7.7,
28-Nov-2021 12:00,8.3,
28-Nov-2021 13:00,7.1,
28-Nov-2021 14:00,9.3,
28-Nov-2021 15:00,9.2,
28-Nov-2021 16:00,7.5,
28-Nov-2021 17:00,9.4,
28-Nov-2021 18:00,4.8,
28-Nov-2021 19:00,4.8,
28-Nov-2021 20:00,6.6,
28-Nov-2021 21:00,7.5,
28-Nov-2021 22:00,6,
28-Nov-2021 23:00,6,
29-Nov-2021 00:00,8.3,
29-Nov-2021 01:00,8,
29-Nov-2021 02:00,7,
29-Nov-2021 03:00,8.8,
29-Nov-2021 04:00,8.9,
29-Nov-2021 05:00,10.6,
29-Nov-2021 06:00,10.3,
29-Nov-2021 07:00,10.3,
29-Nov-2021 08:00,12.5,
29-Nov-2021 09:00,16.2,
29-Nov-2021 10:00,9.6,
29-Nov-2021 11:00,8.1,
29-Nov-2021 12:00,8.1,
29-Nov-2021 13:00,6.4,
29-Nov-2021 14:00,8,
29-Nov-2021 15:00,9.2,
29-Nov-2021 16:00,9.4,
29-Nov-2021 17:00,7.9,
29-Nov-2021 18:00,8,
29-Nov-2021 19:00,5.4,
29-Nov-2021 20:00,7.4,
29-Nov-2021 21:00,9.5,
29-Nov-2021 22:00,9.3,
29-Nov-2021 23:00,8.7,
30-Nov-2021 00:00,10.3,
30-Nov-2021 01:00,10.6,
30-Nov-2021 02:00,9.9,
30-Nov-2021 03:00,8.4,
30-Nov-2021 04:00,8.2,
30-Nov-2021 05:00,8.9,
30-Nov-2021 06:00,8.9,
30-Nov-2021 07:00,8.7,
30-Nov-2021 08:00,15.5,
30-Nov-2021 09:00,12.1,
30-Nov-2021 10:00,8.7,
30-Nov-2021 11:00,8.9,
30-Nov-2021 12:00,15.2,
30-Nov-2021 13:00,15.2,
30-Nov-2021 14:00,9.3,
30-Nov-2021 15:00,8.9,
30-Nov-2021 16:00,8.7,
30-Nov-2021 17:00,6.8,
30-Nov-2021 18:00,8.7,
30-Nov-2021 19:00,10.5,
30-Nov-2021 20:00,8.4,
30-Nov-2021 21:00,10.9,
30-Nov-2021 22:00,8.3,
30-Nov-2021 23:00,8.6,
